Date,TemperatureHighF,TemperatureAvgF,TemperatureLowF,DewpointHighF,DewpointAvgF,DewpointLowF,HumidityHigh,HumidityAvg,HumidityLow,PressureMaxIn,PressureMinIn,WindSpeedMaxMPH,WindSpeedAvgMPH,GustSpeedMaxMPH,PrecipitationSumIn
2013-9-1,87.9,77.2,70.2,77.1,72.3,69.0,98,86,65,29.94,29.81,16,3,16,0.00
2013-9-2,88.5,77.4,71.0,77.3,72.2,69.4,97,85,60,29.93,29.82,10,1,10,0.00
2013-9-3,79.8,73.5,71.6,71.7,70.8,69.3,97,92,71,29.96,29.83,7,1,7,0.00
2013-9-4,87.0,76.5,65.6,71.0,66.5,62.3,94,73,53,30.09,29.96,12,1,12,0.00
2013-9-5,87.3,76.3,66.3,72.1,68.8,64.8,96,79,56,30.13,30.04,7,1,7,0.00
2013-9-6,83.3,73.7,64.2,68.3,62.3,58.8,94,69,45,30.18,30.07,14,2,14,0.00
2013-9-7,83.5,72.5,60.9,68.0,63.7,58.8,94,75,51,30.15,30.00,9,1,9,0.00
2013-9-8,86.0,76.0,65.3,71.6,66.3,62.9,93,74,49,30.01,29.93,10,1,10,0.00
2013-9-9,88.3,77.8,67.5,70.6,66.5,62.2,93,70,43,30.15,30.00,13,2,14,0.00
2013-9-10,88.8,77.9,68.2,72.5,68.8,64.6,96,76,47,30.25,30.15,10,2,10,0.00
2013-9-11,88.0,77.1,66.8,71.1,67.6,60.7,96,74,45,30.23,30.09,11,2,11,0.00
2013-9-12,88.3,76.4,66.4,71.1,68.0,64.4,94,77,54,30.09,29.85,18,2,18,0.00
2013-9-13,85.0,75.7,68.1,69.4,63.7,52.0,96,69,43,29.90,29.77,14,2,14,0.00
2013-9-14,78.0,68.4,59.9,59.4,54.7,49.9,77,62,50,30.12,29.89,18,3,19,0.00
2013-9-15,82.9,71.3,60.0,67.9,62.2,55.5,90,74,56,30.21,30.10,11,1,11,0.00
2013-9-16,85.5,76.5,70.5,72.6,67.7,62.2,96,77,48,30.15,30.04,12,1,12,0.00
2013-9-17,76.3,69.8,63.8,64.5,58.1,54.2,79,67,51,30.31,30.14,17,3,18,0.00
2013-9-18,76.1,64.7,54.0,60.5,54.8,51.6,93,72,51,30.30,30.18,12,2,12,0.00
2013-9-19,79.3,66.6,56.4,64.4,58.7,53.0,92,77,57,30.21,30.10,6,1,6,0.00
2013-9-20,83.9,70.9,62.2,69.2,64.3,59.5,91,80,58,30.11,29.93,10,2,10,0.00
2013-9-21,76.1,70.7,65.3,70.1,67.3,63.8,96,89,77,29.94,29.63,28,4,28,0.62
2013-9-22,76.5,66.2,60.4,67.3,60.5,57.6,96,83,54,29.84,29.63,24,3,24,0.03
2013-9-23,76.2,72.5,65.0,59.8,58.3,56.8,80,61,53,30.05,30.02,8,1,8,0.00
2013-9-25,67.6,64.6,62.6,63.8,62.2,60.9,96,92,81,29.97,29.88,6,0,7,0.68
2013-9-26,75.8,66.4,59.2,62.2,59.0,54.0,97,79,51,30.04,29.89,13,1,13,0.01
2013-9-27,74.5,64.1,53.0,59.3,55.0,51.3,95,74,51,30.19,30.03,16,2,17,0.00
2013-9-28,72.2,62.3,52.5,56.2,53.4,50.8,94,74,52,30.26,30.17,19,2,19,0.00
2013-9-29,72.3,62.2,54.0,58.7,54.8,50.7,93,78,55,30.19,30.05,13,1,14,0.00
2013-9-30,76.6,63.3,52.8,60.3,54.9,51.1,95,76,50,30.12,30.02,7,1,8,0.00